Total_Precipitation_Accumulation
0.16 0.07 0.08 0.07 0.10 0.11 0.12 0.15 0.17 0.19 0.17 0.16 0.16 0.16 0.17 0.16 0.14 0.12 0.11 0.13 0.17 0.24 0.27 0.30 0.30 0.27 0.29 0.29 0.25 0.22 0.20 0.22 0.27 0.29 0.33 0.39 0.45 0.47 0.50 0.51 0.59 0.57 0.48
0.12 0.08 0.08 0.06 0.08 0.09 0.10 0.14 0.16 0.17 0.18 0.19 0.20 0.21 0.21 0.17 0.13 0.12 0.11 0.15 0.22 0.26 0.26 0.28 0.27 0.24 0.25 0.23 0.19 0.18 0.19 0.23 0.33 0.41 0.47 0.49 0.56 0.56 0.54 0.51 0.65 0.79 0.58
0.14 0.09 0.07 0.07 0.07 0.08 0.10 0.14 0.15 0.14 0.16 0.18 0.20 0.21 0.18 0.15 0.14 0.15 0.13 0.17 0.23 0.24 0.23 0.20 0.19 0.19 0.19 0.18 0.17 0.18 0.19 0.28 0.41 0.61 0.96 0.88 0.72 0.63 0.62 0.57 0.50 0.48 0.46
0.16 0.10 0.07 0.08 0.08 0.08 0.09 0.12 0.17 0.17 0.16 0.16 0.18 0.18 0.17 0.17 0.18 0.19 0.19 0.21 0.23 0.23 0.21 0.17 0.17 0.17 0.19 0.19 0.17 0.18 0.22 0.33 0.55 0.87 1.50 1.33 1.05 0.97 0.86 0.71 0.52 0.42 0.40
0.15 0.13 0.11 0.10 0.11 0.12 0.11 0.10 0.16 0.18 0.19 0.20 0.21 0.20 0.21 0.22 0.22 0.22 0.23 0.25 0.26 0.27 0.28 0.28 0.26 0.24 0.23 0.23 0.22 0.23 0.32 0.47 0.74 1.17 1.78 1.72 1.57 1.37 1.00 0.76 0.63 0.55 0.48
0.20 0.14 0.14 0.14 0.14 0.16 0.15 0.15 0.18 0.20 0.23 0.25 0.26 0.25 0.25 0.27 0.27 0.26 0.27 0.30 0.31 0.32 0.34 0.37 0.34 0.27 0.24 0.24 0.27 0.31 0.41 0.62 0.83 1.26 1.86 1.85 1.70 1.47 1.02 0.87 0.73 0.62 0.55
0.36 0.28 0.21 0.19 0.16 0.17 0.19 0.25 0.28 0.25 0.26 0.29 0.30 0.28 0.28 0.29 0.30 0.31 0.32 0.34 0.39 0.40 0.39 0.36 0.32 0.27 0.25 0.26 0.29 0.35 0.49 0.76 1.00 1.57 1.92 1.84 1.93 1.53 1.16 1.07 0.95 0.77 0.61
0.48 0.41 0.36 0.27 0.19 0.20 0.25 0.28 0.35 0.39 0.38 0.37 0.37 0.35 0.36 0.34 0.34 0.37 0.39 0.42 0.47 0.52 0.51 0.41 0.34 0.32 0.30 0.28 0.30 0.37 0.53 0.70 0.87 1.50 1.89 1.76 1.63 1.42 1.30 1.22 1.06 0.86 0.71
0.61 0.60 0.54 0.39 0.33 0.35 0.39 0.38 0.42 0.46 0.46 0.46 0.47 0.47 0.45 0.44 0.43 0.43 0.44 0.47 0.52 0.55 0.54 0.50 0.46 0.42 0.40 0.37 0.36 0.40 0.50 0.75 0.95 1.23 1.39 1.71 1.62 1.63 1.47 1.24 1.02 0.85 0.74
0.85 0.83 0.80 0.78 0.71 0.60 0.59 0.63 0.61 0.62 0.57 0.49 0.46 0.49 0.49 0.46 0.45 0.47 0.45 0.52 0.56 0.59 0.56 0.59 0.64 0.61 0.55 0.48 0.45 0.46 0.54 0.64 0.66 1.06 1.63 1.63 1.57 1.76 1.74 1.41 1.14 0.95 0.82
1.09 1.08 0.96 1.00 1.00 0.86 0.80 0.76 0.81 0.81 0.75 0.65 0.57 0.58 0.56 0.64 0.72 0.69 0.63 0.71 0.72 0.75 0.77 0.80 0.78 0.73 0.74 0.66 0.62 0.65 0.63 0.57 0.80 1.31 1.79 1.56 1.59 1.84 1.92 1.70 1.37 1.15 1.01
1.29 1.25 1.18 1.07 1.01 0.97 0.89 0.94 1.03 1.02 0.99 0.84 0.89 0.86 0.88 1.17 1.32 1.14 1.21 1.20 1.14 1.11 1.07 1.02 0.94 0.89 0.81 0.67 0.74 0.75 0.60 0.67 1.00 1.51 1.53 1.45 1.61 1.89 2.12 1.92 1.59 1.35 1.24
1.64 1.44 1.51 1.42 1.31 1.44 1.51 1.38 1.35 1.39 1.43 1.27 1.36 1.38 1.43 1.59 1.58 1.54 1.67 1.53 1.47 1.42 1.38 1.45 1.22 0.99 0.93 0.91 0.87 0.83 0.76 0.78 0.97 1.23 1.38 1.46 1.71 2.05 2.27 2.08 1.83 1.67 1.61
2.14 1.93 1.87 1.89 1.82 1.88 2.12 1.93 1.73 1.62 1.66 1.67 1.76 1.69 1.96 2.04 1.98 1.93 2.01 1.92 1.92 1.90 1.94 1.82 1.67 1.45 1.30 1.17 1.05 1.04 1.02 0.98 1.07 1.30 1.46 1.51 1.66 2.06 2.37 2.31 2.10 1.88 1.80
2.40 2.29 2.04 2.11 2.19 2.35 2.54 2.36 2.14 2.20 1.99 1.92 2.10 2.09 2.22 2.27 2.22 2.29 2.19 2.17 2.07 2.05 2.03 1.92 1.84 1.84 1.73 1.54 1.28 1.25 1.29 1.22 1.26 1.45 1.52 1.55 1.59 1.90 2.34 2.58 2.47 2.22 2.17
2.34 2.43 2.48 2.43 2.48 2.39 2.50 2.49 2.26 2.15 2.26 2.12 2.11 2.16 2.17 2.27 2.48 2.54 2.50 2.45 2.39 2.35 2.41 2.24 2.02 2.16 2.00 1.90 1.70 1.61 1.54 1.58 1.56 1.66 1.87 1.86 1.65 1.67 2.02 2.44 2.62 2.61 2.60
2.28 2.32 2.47 2.50 2.60 2.57 2.54 2.57 2.44 2.30 2.28 2.36 2.44 2.52 2.37 2.35 2.62 2.69 2.83 2.76 2.71 2.65 2.66 2.60 2.46 2.48 2.25 2.13 1.99 1.86 1.81 1.92 1.92 1.86 2.02 2.16 1.93 1.86 1.87 2.04 2.29 2.51 2.68
1.93 2.10 2.27 2.42 2.52 2.76 2.86 2.96 2.82 2.90 2.87 2.81 2.70 2.68 2.56 2.54 2.75 3.01 3.09 3.04 3.05 2.92 2.96 3.06 3.01 2.79 2.65 2.47 2.29 2.02 1.95 2.08 2.11 2.08 2.11 2.25 2.39 2.22 2.09 1.97 2.04 2.21 2.48
1.70 2.05 2.30 2.53 2.78 2.95 3.19 3.42 3.37 3.46 3.35 3.25 3.19 3.08 3.13 3.21 3.21 3.37 3.47 3.50 3.46 3.46 3.43 3.25 3.42 3.24 3.14 2.94 2.54 2.32 2.07 2.01 2.10 2.02 2.09 2.09 2.25 2.29 2.30 2.18 2.07 2.11 2.33
1.79 2.12 2.43 2.70 3.11 3.50 3.60 3.76 3.68 3.81 3.85 3.88 4.00 3.89 3.72 3.80 3.83 3.95 3.92 3.92 3.93 3.96 3.80 3.75 3.77 3.53 3.32 3.24 2.78 2.55 2.35 2.11 2.11 2.08 2.05 2.11 2.08 1.99 2.07 2.17 2.28 2.08 2.23
2.33 2.44 2.61 2.88 3.20 3.41 3.73 4.02 4.17 4.25 4.44 4.54 4.57 4.65 4.65 4.65 4.75 4.81 4.67 4.60 4.45 4.32 4.12 4.01 3.83 3.62 3.37 3.29 3.13 2.72 2.22 1.91 1.87 1.80 1.84 1.98 1.99 1.93 1.99 2.08 2.15 2.10 1.99
2.65 2.68 2.90 3.21 3.51 3.68 4.05 4.48 4.85 5.00 5.09 5.12 5.13 5.32 5.44 5.47 5.62 5.68 5.63 5.42 5.21 4.92 4.45 4.06 3.84 3.64 3.33 3.38 3.32 3.19 2.57 2.13 1.77 1.45 1.53 1.61 1.68 1.83 1.83 1.83 1.95 2.08 2.01
2.62 2.71 2.90 3.32 3.78 4.23 4.68 5.12 5.50 5.76 5.78 5.70 5.44 5.59 5.75 5.69 5.76 5.92 5.88 5.65 5.30 4.74 4.21 4.00 3.90 3.77 3.56 3.47 3.33 3.39 2.93 2.46 2.07 1.62 1.39 1.32 1.42 1.49 1.50 1.56 1.65 1.79 1.79
2.52 2.75 2.94 3.29 3.92 4.43 4.82 5.43 5.95 6.24 6.46 6.58 6.39 6.09 5.88 5.66 5.55 5.44 5.26 4.85 4.45 4.11 3.82 3.70 3.72 3.56 3.53 3.40 3.31 3.03 2.80 2.51 2.26 1.88 1.52 1.33 1.32 1.33 1.34 1.33 1.41 1.64 1.73
2.38 2.51 2.72 3.20 3.80 4.50 5.14 5.70 6.20 6.64 6.87 6.82 6.42 6.01 5.52 5.15 4.74 4.37 4.00 3.73 3.63 3.47 3.26 3.16 3.12 3.04 2.90 2.83 2.84 2.81 2.74 2.49 2.17 1.95 1.71 1.50 1.47 1.37 1.37 1.42 1.48 1.56 1.67
2.04 2.24 2.48 2.89 3.60 4.34 4.98 5.60 6.05 6.43 6.47 6.15 5.62 5.11 4.79 4.42 3.95 3.48 3.23 3.00 2.88 2.71 2.49 2.37 2.35 2.39 2.47 2.52 2.57 2.55 2.51 2.48 2.32 2.22 2.04 1.81 1.67 1.62 1.54 1.49 1.56 1.64 1.79